Time,TemperatureF,DewpointF,PressureIn,WindDirection,WindDirectionDegrees,WindSpeedMPH,WindSpeedGustMPH,Humidity,HourlyPrecipIn,Conditions,Clouds,dailyrainin,SoftwareType,DateUTC
2013-06-26 04:52:00,67.6,67.0,29.77,SSW,210,0.0,-999.0,96,-99.99,,,0.01,weatherlink.com 1.10,2013-06-26 08:52:00,
2013-06-26 05:04:00,67.7,67.0,29.76,SSW,210,0.0,-999.0,97,-99.99,,,0.01,weatherlink.com 1.10,2013-06-26 09:04:00,
2013-06-26 05:19:00,67.7,67.0,29.77,SSW,210,0.0,-999.0,97,-99.99,,,0.01,weatherlink.com 1.10,2013-06-26 09:19:00,
2013-06-26 05:34:00,67.7,67.0,29.77,SSW,210,0.0,-999.0,97,-99.99,,,0.01,weatherlink.com 1.10,2013-06-26 09:34:00,
2013-06-26 05:49:00,67.8,67.0,29.76,SSW,203,0.0,-999.0,97,-99.99,,,0.01,weatherlink.com 1.10,2013-06-26 09:49:00,
2013-06-26 06:04:00,68.2,67.0,29.76,SSW,192,1.0,-999.0,97,-99.99,,,0.01,weatherlink.com 1.10,2013-06-26 10:04:00,
2013-06-26 06:19:00,68.4,68.0,29.77,SSW,192,0.0,-999.0,97,-99.99,,,0.01,weatherlink.com 1.10,2013-06-26 10:19:00,
2013-06-26 06:34:00,68.5,68.0,29.76,South,189,0.0,-999.0,97,-99.99,,,0.01,weatherlink.com 1.10,2013-06-26 10:34:00,
2013-06-26 06:49:00,68.9,68.0,29.78,South,189,0.0,-999.0,96,-99.99,,,0.01,weatherlink.com 1.10,2013-06-26 10:49:00,
2013-06-26 07:04:00,69.0,68.0,29.77,SE,142,0.0,-999.0,96,-99.99,,,0.01,weatherlink.com 1.10,2013-06-26 11:04:00,
2013-06-26 07:19:00,69.3,68.0,29.78,SE,142,0.0,-999.0,96,-99.99,,,0.01,weatherlink.com 1.10,2013-06-26 11:19:00,
2013-06-26 07:34:00,69.6,69.0,29.78,SE,142,0.0,-999.0,96,-99.99,,,0.01,weatherlink.com 1.10,2013-06-26 11:34:00,
2013-06-26 07:49:00,70.0,69.0,29.79,SE,142,0.0,-999.0,96,-99.99,,,0.01,weatherlink.com 1.10,2013-06-26 11:49:00,
2013-06-26 08:04:00,70.5,69.0,29.79,SSW,195,2.0,-999.0,96,-99.99,,,0.01,weatherlink.com 1.10,2013-06-26 12:04:00,
2013-06-26 08:19:00,70.9,70.0,29.80,SSW,195,0.0,-999.0,96,-99.99,,,0.01,weatherlink.com 1.10,2013-06-26 12:19:00,
2013-06-26 08:34:00,71.1,70.0,29.79,SE,136,0.0,-999.0,95,-99.99,,,0.01,weatherlink.com 1.10,2013-06-26 12:34:00,
2013-06-26 08:49:00,71.0,70.0,29.80,SE,136,0.0,-999.0,95,-99.99,,,0.01,weatherlink.com 1.10,2013-06-26 12:49:00,
2013-06-26 09:04:00,71.2,70.0,29.79,SE,137,0.0,-999.0,95,-99.99,,,0.01,weatherlink.com 1.10,2013-06-26 13:04:00,
2013-06-26 09:19:00,71.3,70.0,29.79,SE,134,0.0,-999.0,95,-99.99,,,0.01,weatherlink.com 1.10,2013-06-26 13:19:00,
2013-06-26 09:34:00,71.6,70.0,29.79,SE,136,0.0,-999.0,95,-99.99,,,0.01,weatherlink.com 1.10,2013-06-26 13:34:00,
2013-06-26 09:49:00,71.8,70.0,29.79,South,173,4.0,-999.0,93,-99.99,,,0.01,weatherlink.com 1.10,2013-06-26 13:49:00,
2013-06-26 10:04:00,72.1,70.0,29.79,South,186,2.0,-999.0,94,-99.99,,,0.01,weatherlink.com 1.10,2013-06-26 14:04:00,
2013-06-26 10:19:00,72.4,70.0,29.79,SW,217,0.0,-999.0,93,-99.99,,,0.01,weatherlink.com 1.10,2013-06-26 14:19:00,
2013-06-26 10:34:00,72.6,70.0,29.79,SSW,205,0.0,-999.0,92,-99.99,,,0.01,weatherlink.com 1.10,2013-06-26 14:34:00,
2013-06-26 10:49:00,72.6,71.0,29.80,South,186,0.0,-999.0,93,-99.99,,,0.01,weatherlink.com 1.10,2013-06-26 14:49:00,
2013-06-26 11:04:00,72.6,71.0,29.80,South,188,0.0,-999.0,93,-99.99,,,0.01,weatherlink.com 1.10,2013-06-26 15:04:00,
2013-06-26 11:20:00,72.9,71.0,29.80,South,188,0.0,-999.0,93,-99.99,,,0.01,weatherlink.com 1.10,2013-06-26 15:20:00,
2013-06-26 11:35:00,73.1,71.0,29.80,South,188,2.0,-999.0,93,-99.99,,,0.01,weatherlink.com 1.10,2013-06-26 15:35:00,
2013-06-26 11:50:00,72.7,70.0,29.80,South,191,4.0,-999.0,92,-99.99,,,0.01,weatherlink.com 1.10,2013-06-26 15:50:00,
2013-06-26 12:05:00,72.6,70.0,29.81,South,191,2.0,-999.0,92,-99.99,,,0.01,weatherlink.com 1.10,2013-06-26 16:05:00,
2013-06-26 12:20:00,72.6,70.0,29.81,South,191,0.0,-999.0,92,-99.99,,,0.02,weatherlink.com 1.10,2013-06-26 16:20:00,
2013-06-26 12:35:00,72.5,70.0,29.81,SSW,207,2.0,-999.0,92,-99.99,,,0.02,weatherlink.com 1.10,2013-06-26 16:35:00,
2013-06-26 12:50:00,72.2,70.0,29.81,SW,221,0.0,-999.0,93,-99.99,,,0.03,weatherlink.com 1.10,2013-06-26 16:50:00,
2013-06-26 13:05:00,72.0,70.0,29.81,SSW,210,0.0,-999.0,93,-99.99,,,0.05,weatherlink.com 1.10,2013-06-26 17:05:00,
2013-06-26 13:20:00,71.9,70.0,29.81,SSW,204,4.0,-999.0,93,-99.99,,,0.06,weatherlink.com 1.10,2013-06-26 17:20:00,
2013-06-26 13:35:00,72.1,70.0,29.81,SSW,203,0.0,-999.0,94,-99.99,,,0.07,weatherlink.com 1.10,2013-06-26 17:35:00,
2013-06-26 13:50:00,72.4,71.0,29.81,South,189,0.0,-999.0,94,-99.99,,,0.07,weatherlink.com 1.10,2013-06-26 17:50:00,
2013-06-26 14:05:00,72.1,70.0,29.82,SSW,193,0.0,-999.0,93,-99.99,,,0.08,weatherlink.com 1.10,2013-06-26 18:05:00,
2013-06-26 14:20:00,72.1,70.0,29.82,SSW,195,5.0,-999.0,94,-99.99,,,0.08,weatherlink.com 1.10,2013-06-26 18:20:00,
2013-06-26 14:35:00,72.1,70.0,29.81,SSW,200,3.0,-999.0,94,-99.99,,,0.08,weatherlink.com 1.10,2013-06-26 18:35:00,
2013-06-26 14:50:00,72.7,71.0,29.82,SSW,200,2.0,-999.0,94,-99.99,,,0.08,weatherlink.com 1.10,2013-06-26 18:50:00,
2013-06-26 15:05:00,72.6,71.0,29.81,ESE,106,7.0,-999.0,93,-99.99,,,0.08,weatherlink.com 1.10,2013-06-26 19:05:00,
2013-06-26 15:20:00,72.6,71.0,29.80,SE,124,4.0,-999.0,94,-99.99,,,0.09,weatherlink.com 1.10,2013-06-26 19:20:00,
2013-06-26 15:35:00,72.8,71.0,29.80,West,266,2.0,-999.0,94,-99.99,,,0.09,weatherlink.com 1.10,2013-06-26 19:35:00,
2013-06-26 15:50:00,72.9,71.0,29.81,SSW,205,6.0,-999.0,92,-99.99,,,0.09,weatherlink.com 1.10,2013-06-26 19:50:00,
2013-06-26 16:05:00,75.2,72.0,29.80,SSE,151,0.0,-999.0,89,-99.99,,,0.09,weatherlink.com 1.10,2013-06-26 20:05:00,
2013-06-26 16:20:00,76.6,72.0,29.80,SW,222,10.0,-999.0,85,-99.99,,,0.09,weatherlink.com 1.10,2013-06-26 20:20:00,
2013-06-26 16:35:00,77.1,71.0,29.80,South,189,4.0,-999.0,82,-99.99,,,0.09,weatherlink.com 1.10,2013-06-26 20:35:00,
2013-06-26 16:50:00,76.3,71.0,29.79,South,182,6.0,-999.0,83,-99.99,,,0.09,weatherlink.com 1.10,2013-06-26 20:50:00,
2013-06-26 17:05:00,76.8,72.0,29.79,SE,139,5.0,-999.0,84,-99.99,,,0.09,weatherlink.com 1.10,2013-06-26 21:05:00,
2013-06-26 17:20:00,76.6,72.0,29.79,ESE,113,2.0,-999.0,84,-99.99,,,0.09,weatherlink.com 1.10,2013-06-26 21:20:00,
2013-06-26 17:35:00,76.6,71.0,29.79,SSW,201,0.0,-999.0,83,-99.99,,,0.09,weatherlink.com 1.10,2013-06-26 21:35:00,
2013-06-26 17:50:00,77.4,72.0,29.79,SE,131,0.0,-999.0,83,-99.99,,,0.09,weatherlink.com 1.10,2013-06-26 21:50:00,
2013-06-26 18:05:00,76.4,71.0,29.79,South,180,4.0,-999.0,84,-99.99,,,0.09,weatherlink.com 1.10,2013-06-26 22:05:00,
2013-06-26 18:20:00,76.3,70.0,29.79,SSE,160,0.0,-999.0,81,-99.99,,,0.09,weatherlink.com 1.10,2013-06-26 22:20:00,
2013-06-26 18:35:00,75.8,71.0,29.80,SSE,160,0.0,-999.0,86,-99.99,,,0.09,weatherlink.com 1.10,2013-06-26 22:35:00,
2013-06-26 18:50:00,76.2,72.0,29.79,South,186,2.0,-999.0,86,-99.99,,,0.09,weatherlink.com 1.10,2013-06-26 22:50:00,
2013-06-26 19:05:00,75.6,71.0,29.80,SSE,162,0.0,-999.0,85,-99.99,,,0.09,weatherlink.com 1.10,2013-06-26 23:05:00,
2013-06-26 19:20:00,75.4,71.0,29.80,SSE,155,0.0,-999.0,87,-99.99,,,0.09,weatherlink.com 1.10,2013-06-26 23:20:00,
2013-06-26 19:35:00,74.8,71.0,29.79,SSE,162,0.0,-999.0,87,-99.99,,,0.09,weatherlink.com 1.10,2013-06-26 23:35:00,
2013-06-26 19:50:00,74.0,70.0,29.79,SSE,162,0.0,-999.0,88,-99.99,,,0.09,weatherlink.com 1.10,2013-06-26 23:50:00,
2013-06-26 20:05:00,73.2,70.0,29.79,South,174,0.0,-999.0,89,-99.99,,,0.09,weatherlink.com 1.10,2013-06-27 00:05:00,
2013-06-26 20:20:00,72.6,70.0,29.79,SSE,159,4.0,-999.0,90,-99.99,,,0.09,weatherlink.com 1.10,2013-06-27 00:20:00,
2013-06-26 20:35:00,72.0,69.0,29.79,SSE,159,3.0,-999.0,91,-99.99,,,0.09,weatherlink.com 1.10,2013-06-27 00:35:00,
2013-06-26 20:50:00,71.7,69.0,29.79,SE,143,0.0,-999.0,91,-99.99,,,0.09,weatherlink.com 1.10,2013-06-27 00:50:00,
2013-06-26 21:05:00,71.8,69.0,29.79,SE,132,5.0,-999.0,91,-99.99,,,0.09,weatherlink.com 1.10,2013-06-27 01:05:00,
2013-06-26 21:20:00,71.4,69.0,29.81,ESE,117,6.0,-999.0,92,-99.99,,,0.09,weatherlink.com 1.10,2013-06-27 01:20:00,
2013-06-26 21:35:00,71.0,69.0,29.82,SSE,148,2.0,-999.0,92,-99.99,,,0.09,weatherlink.com 1.10,2013-06-27 01:35:00,
2013-06-26 21:50:00,70.6,69.0,29.81,SE,141,5.0,-999.0,93,-99.99,,,0.09,weatherlink.com 1.10,2013-06-27 01:50:00,
2013-06-26 22:05:00,70.4,68.0,29.81,SE,137,5.0,-999.0,93,-99.99,,,0.09,weatherlink.com 1.10,2013-06-27 02:05:00,
2013-06-26 22:20:00,70.2,68.0,29.81,SE,135,0.0,-999.0,93,-99.99,,,0.09,weatherlink.com 1.10,2013-06-27 02:20:00,
2013-06-26 22:35:00,70.1,68.0,29.81,SE,142,5.0,-999.0,93,-99.99,,,0.09,weatherlink.com 1.10,2013-06-27 02:35:00,
2013-06-26 22:50:00,70.2,68.0,29.81,SSE,152,2.0,-999.0,93,-99.99,,,0.09,weatherlink.com 1.10,2013-06-27 02:50:00,
2013-06-26 23:05:00,69.9,68.0,29.80,SE,131,5.0,-999.0,93,-99.99,,,0.09,weatherlink.com 1.10,2013-06-27 03:05:00,
2013-06-26 23:20:00,69.5,68.0,29.80,SE,141,1.0,-999.0,94,-99.99,,,0.09,weatherlink.com 1.10,2013-06-27 03:20:00,
2013-06-26 23:35:00,69.2,67.0,29.80,SE,146,3.0,-999.0,93,-99.99,,,0.09,weatherlink.com 1.10,2013-06-27 03:35:00,
2013-06-26 23:50:00,68.9,67.0,29.81,SE,139,2.0,-999.0,94,-99.99,,,0.09,weatherlink.com 1.10,2013-06-27 03:50:00,